Regional Weather Roundup
Issued by NWS Charleston, WV

Home | Current Version | Previous Version | Graphics & Text | Print | Product List | Glossary On
Versions: 1 2 3 4 5 6 7 8 9 10 11 12 13 14 15 16 17 18 19 20 21 22 23 24 25 26
000
ASUS41 KRLX 260110
RWRRLX
West Virginia Regional Weather Roundup
National Weather Service Charleston WV
900 PM EDT TUE APR 25 2017

Note: "fair" indicates few or no clouds below 12,000 feet with no
significant weather and/or obstructions to visibility.

WVZ003-260200-
Northern Panhandle of West Virginia

CITY           SKY/WX    TMP DP  RH WIND       PRES   REMARKS
WHEELING       CLOUDY    57  53  86 E8        29.79S
$$

WVZ009-260200-
Northwest West Virginia

CITY           SKY/WX    TMP DP  RH WIND       PRES   REMARKS
PARKERSBURG    CLOUDY    66  53  63 E7        29.77R
$$

WVZ006-260200-
Western West Virginia

CITY           SKY/WX    TMP DP  RH WIND       PRES   REMARKS
HUNTINGTON     CLEAR     68  55  63 SE3       29.72S
$$

WVZ015-260200-
West Central West Virginia

CITY           SKY/WX    TMP DP  RH WIND       PRES   REMARKS
CHARLESTON     CLOUDY    65  58  78 CALM      29.74R
$$

WVZ022-031-260200-
North Central West Virginia

CITY           SKY/WX    TMP DP  RH WIND       PRES   REMARKS
CLARKSBURG     CLOUDY    59  49  69 E7        29.78S
MORGANTOWN     CLOUDY    58  51  78 N3        29.80S
$$

WVZ025-035-042-045-260200-
Southern West Virginia

CITY           SKY/WX    TMP DP  RH WIND       PRES   REMARKS
BECKLEY        CLOUDY    59  55  87 CALM      29.79R
LOGAN          CLOUDY    66  59  77 NE3       29.76S
BLUEFIELD      CLOUDY    56  55  97 CALM      29.80S
LEWISBURG      CLOUDY    58  53  81 CALM      29.79R
$$

WVZ047-260200-
Northern Mountains of West Virginia

CITY           SKY/WX    TMP DP  RH WIND       PRES   REMARKS
ELKINS         CLOUDY    57  47  69 CALM      29.80R
$$

WVZ052-260200-
Eastern Panhandle of West Virginia

CITY           SKY/WX    TMP DP  RH WIND       PRES   REMARKS
MARTINSBURG    CLOUDY    56  54  93 N9        29.77S FOG
PETERSBURG     CLOUDY    56  55  94 NW3       29.81S
$$




USA.gov is the U.S. government's official web portal to all federal, state and local government web resources and services.